• In Hungary
  • List of Countries
  • For 7 days
  • Water Temperature
  • Satellite Maps
  • Weather Map
  • News
  • Weather Widgets
  • user-avatar
    Login

    Hourly Weather Zavadivka

    Today, 19 January, Friday

    Time Temperature Precipitation Wind Pressure Humidity
    00:00 -6°C° 0 mm 7 mps 743 mmHg 85%
    01:00 -6°C° 0 mm 8 mps 743 mmHg 85%
    02:00 -8°C° 0 mm 8 mps 743 mmHg 85%
    03:00 -8°C° 0 mm 7 mps 743 mmHg 86%
    04:00 -8°C° 0 mm 7 mps 743 mmHg 86%
    05:00 -8°C° 0 mm 7 mps 743 mmHg 86%
    06:00 -8°C° 0 mm 6 mps 743 mmHg 87%
    07:00 -8°C° 0 mm 6 mps 743 mmHg 87%
    08:00 -8°C° 0 mm 6 mps 743 mmHg 87%
    09:00 -8°C° 0 mm 6 mps 743 mmHg 86%
    10:00 -6°C° 0 mm 6 mps 744 mmHg 84%
    11:00 -7°C° 0 mm 7 mps 744 mmHg 83%
    12:00 -5°C° 0.1 mm 6 mps 744 mmHg 84%
    13:00 -5°C° 0.1 mm 6 mps 744 mmHg 84%
    14:00 -4°C° 0.1 mm 5 mps 744 mmHg 85%
    15:00 -4°C° 0.2 mm 5 mps 744 mmHg 87%
    16:00 -3°C° 0.2 mm 4 mps 745 mmHg 89%
    17:00 -3°C° 0.2 mm 4 mps 745 mmHg 91%
    18:00 -3°C° 0.2 mm 4 mps 745 mmHg 92%
    19:00 -2°C° 0.2 mm 3 mps 745 mmHg 93%
    20:00 -2°C° 0.2 mm 3 mps 745 mmHg 94%
    21:00 -2°C° 0.1 mm 3 mps 745 mmHg 94%
    22:00 -2°C° 0.1 mm 3 mps 746 mmHg 94%
    23:00 -2°C° 0.1 mm 3 mps 746 mmHg 95%

    Tomorrow, 20 January, Saturday

    Time Temperature Precipitation Wind Pressure Humidity
    00:00 -2°C° 0 mm 3 mps 746 mmHg 95%
    01:00 -4°C° 0 mm 3 mps 746 mmHg 95%
    02:00 -4°C° 0 mm 3 mps 747 mmHg 95%
    03:00 -4°C° 0 mm 3 mps 747 mmHg 95%
    04:00 -5°C° 0 mm 3 mps 747 mmHg 94%
    05:00 -5°C° 0 mm 4 mps 747 mmHg 94%
    06:00 -4°C° 0 mm 4 mps 747 mmHg 93%
    07:00 -4°C° 0 mm 4 mps 748 mmHg 92%
    08:00 -4°C° 0 mm 4 mps 748 mmHg 92%
    09:00 -3°C° 0 mm 4 mps 748 mmHg 91%
    10:00 -2°C° 0 mm 4 mps 748 mmHg 90%
    11:00 -2°C° 0 mm 4 mps 748 mmHg 88%
    12:00 0°C° 0.1 mm 3 mps 748 mmHg 89%
    13:00 0°C° 0.1 mm 3 mps 748 mmHg 90%
    14:00 0°C° 0.1 mm 3 mps 748 mmHg 91%
    15:00 +1°C° 0.1 mm 2 mps 748 mmHg 92%
    16:00 -1°C° 0.1 mm 2 mps 748 mmHg 93%
    17:00 -1°C° 0.1 mm 2 mps 748 mmHg 94%
    18:00 +1°C° 0.2 mm 1 mps 748 mmHg 95%
    19:00 +1°C° 0.2 mm 1 mps 747 mmHg 95%
    20:00 0°C° 0.2 mm 1 mps 747 mmHg 96%
    21:00 +1°C° 0.5 mm 1 mps 747 mmHg 96%
    22:00 -1°C° 0.5 mm 2 mps 747 mmHg 97%
    23:00 -1°C° 0.5 mm 2 mps 746 mmHg 97%

    Day after tomorrow, 21 January, Sunday

    Time Temperature Precipitation Wind Pressure Humidity
    00:00 -1°C° 0.7 mm 2 mps 746 mmHg 97%
    01:00 -1°C° 0.7 mm 3 mps 746 mmHg 97%
    02:00 -1°C° 0.7 mm 3 mps 745 mmHg 97%
    03:00 -2°C° 1 mm 4 mps 745 mmHg 97%
    04:00 -2°C° 1 mm 4 mps 744 mmHg 97%
    05:00 -1°C° 1 mm 4 mps 743 mmHg 97%
    06:00 -1°C° 1.2 mm 4 mps 743 mmHg 98%
    07:00 -1°C° 1.2 mm 4 mps 742 mmHg 98%
    08:00 -1°C° 1.2 mm 4 mps 741 mmHg 98%
    09:00 -1°C° 1.6 mm 4 mps 741 mmHg 98%
    10:00 -1°C° 1.6 mm 4 mps 740 mmHg 99%
    11:00 -1°C° 1.6 mm 4 mps 740 mmHg 99%
    12:00 -1°C° 1 mm 5 mps 740 mmHg 97%
    13:00 -3°C° 1 mm 6 mps 740 mmHg 96%
    14:00 -3°C° 1 mm 7 mps 740 mmHg 95%
    15:00 -4°C° 0.1 mm 7 mps 741 mmHg 93%
    16:00 -6°C° 0.1 mm 7 mps 742 mmHg 90%
    17:00 -6°C° 0.1 mm 7 mps 743 mmHg 88%
    18:00 -8°C° 0 mm 6 mps 744 mmHg 90%
    19:00 -8°C° 0 mm 5 mps 745 mmHg 91%
    20:00 -9°C° 0 mm 4 mps 746 mmHg 92%
    21:00 -8°C° 0 mm 3 mps 747 mmHg 93%
    22:00 -9°C° 0 mm 3 mps 747 mmHg 94%
    23:00 -8°C° 0 mm 2 mps 748 mmHg 95%

    22 January, Monday

    Time Temperature Precipitation Wind Pressure Humidity
    00:00 -8°C° 0 mm 2 mps 748 mmHg 94%
    01:00 -8°C° 0 mm 2 mps 748 mmHg 94%
    02:00 -8°C° 0 mm 2 mps 748 mmHg 94%
    03:00 -8°C° 0 mm 2 mps 748 mmHg 94%
    04:00 -8°C° 0 mm 2 mps 748 mmHg 93%
    05:00 -9°C° 0 mm 3 mps 748 mmHg 93%
    06:00 -9°C° 0 mm 3 mps 748 mmHg 93%
    07:00 -9°C° 0 mm 3 mps 748 mmHg 92%
    08:00 -9°C° 0 mm 3 mps 748 mmHg 92%
    09:00 -9°C° 0 mm 3 mps 749 mmHg 92%
    10:00 -8°C° 0 mm 3 mps 749 mmHg 92%
    11:00 -9°C° 0 mm 4 mps 749 mmHg 91%
    12:00 -8°C° 0 mm 4 mps 748 mmHg 91%
    13:00 -8°C° 0 mm 4 mps 748 mmHg 91%
    14:00 -8°C° 0 mm 5 mps 748 mmHg 91%
    15:00 -8°C° 0 mm 5 mps 748 mmHg 92%
    16:00 -8°C° 0 mm 5 mps 748 mmHg 92%
    17:00 -8°C° 0 mm 5 mps 748 mmHg 92%
    18:00 -9°C° 0.1 mm 6 mps 748 mmHg 92%
    19:00 -9°C° 0.1 mm 6 mps 749 mmHg 92%
    20:00 -9°C° 0.1 mm 6 mps 749 mmHg 92%
    21:00 -9°C° 0.1 mm 7 mps 749 mmHg 92%
    22:00 -9°C° 0.1 mm 7 mps 749 mmHg 92%
    23:00 -11°C° 0.1 mm 7 mps 749 mmHg 91%

    23 January, Tuesday

    Time Temperature Precipitation Wind Pressure Humidity
    00:00 -11°C° 0.2 mm 7 mps 749 mmHg 91%
    01:00 -11°C° 0.2 mm 7 mps 749 mmHg 91%
    02:00 -11°C° 0.2 mm 7 mps 749 mmHg 91%
    03:00 -11°C° 0.2 mm 7 mps 749 mmHg 91%
    04:00 -11°C° 0.2 mm 7 mps 749 mmHg 91%
    05:00 -11°C° 0.2 mm 7 mps 749 mmHg 91%
    06:00 -12°C° 0.1 mm 7 mps 750 mmHg 91%
    07:00 -12°C° 0.1 mm 7 mps 750 mmHg 91%
    08:00 -12°C° 0.1 mm 7 mps 750 mmHg 90%
    09:00 -12°C° 0.1 mm 7 mps 751 mmHg 90%
    10:00 -11°C° 0.1 mm 7 mps 751 mmHg 90%
    11:00 -11°C° 0.1 mm 8 mps 751 mmHg 90%
    12:00 -11°C° 0.1 mm 7 mps 752 mmHg 90%
    13:00 -11°C° 0.1 mm 7 mps 752 mmHg 89%
    14:00 -11°C° 0.1 mm 7 mps 752 mmHg 89%
    15:00 -12°C° 0 mm 7 mps 753 mmHg 89%
    16:00 -12°C° 0 mm 7 mps 753 mmHg 89%
    17:00 -13°C° 0 mm 7 mps 754 mmHg 89%
    18:00 -13°C° 0 mm 7 mps 754 mmHg 89%
    19:00 -14°C° 0 mm 7 mps 755 mmHg 90%
    20:00 -14°C° 0 mm 6 mps 755 mmHg 90%
    21:00 -14°C° 0 mm 6 mps 756 mmHg 90%
    22:00 -15°C° 0 mm 6 mps 756 mmHg 90%
    23:00 -15°C° 0 mm 6 mps 756 mmHg 91%

    24 January, Wednesday

    Time Temperature Precipitation Wind Pressure Humidity
    00:00 -15°C° 0 mm 6 mps 756 mmHg 91%
    01:00 -16°C° 0 mm 6 mps 757 mmHg 91%
    02:00 -15°C° 0 mm 5 mps 757 mmHg 91%
    03:00 -15°C° 0 mm 5 mps 757 mmHg 92%
    04:00 -17°C° 0 mm 5 mps 758 mmHg 92%
    05:00 -17°C° 0 mm 5 mps 758 mmHg 92%
    06:00 -18°C° 0 mm 5 mps 758 mmHg 93%
    07:00 -19°C° 0 mm 5 mps 759 mmHg 93%
    08:00 -18°C° 0 mm 4 mps 759 mmHg 94%
    09:00 -18°C° 0 mm 4 mps 760 mmHg 93%
    10:00 -17°C° 0 mm 4 mps 760 mmHg 93%
    11:00 -16°C° 0 mm 4 mps 760 mmHg 93%
    12:00 -16°C° 0 mm 4 mps 760 mmHg 92%
    13:00 -15°C° 0 mm 4 mps 760 mmHg 92%
    14:00 -15°C° 0 mm 4 mps 760 mmHg 91%
    15:00 -16°C° 0 mm 4 mps 761 mmHg 92%
    16:00 -15°C° 0 mm 3 mps 761 mmHg 93%
    17:00 -16°C° 0 mm 3 mps 761 mmHg 94%
    18:00 -17°C° 0 mm 3 mps 762 mmHg 94%
    19:00 -17°C° 0 mm 3 mps 762 mmHg 94%
    20:00 -18°C° 0 mm 3 mps 763 mmHg 94%
    21:00 -18°C° 0 mm 3 mps 763 mmHg 94%
    22:00 -19°C° 0 mm 3 mps 763 mmHg 94%
    23:00 -18°C° 0 mm 2 mps 763 mmHg 94%
    Show more